RH
3 3 3 3 4 4 4 5 5 6 6 5 5 7 8 9 8 8 7 7 7 7 8 9 9 10 10 10 9 10 10 10 10 11 15 25 29 29 26 25 26 27 27
6 3 4 4 4 4 4 5 6 7 8 8 8 9 10 10 10 10 9 9 9 9 9 9 9 10 10 10 9 10 11 10 12 11 12 14 28 31 30 30 31 32 30
14 4 4 4 5 6 6 6 7 8 10 11 10 10 10 9 10 10 10 9 9 8 8 8 8 8 8 8 9 9 10 10 12 10 11 17 14 29 36 34 36 36 36
16 7 6 4 5 7 8 9 8 9 10 10 10 10 10 10 10 9 9 8 8 7 7 8 8 8 8 9 9 9 9 9 10 13 13 14 15 16 24 41 39 37 38
13 12 9 7 6 7 7 8 8 9 9 8 8 8 8 8 7 7 8 8 8 8 8 8 9 11 12 10 9 8 9 10 10 12 14 21 25 18 16 31 42 46 37
6 12 16 11 9 7 6 6 6 7 6 5 5 5 5 6 6 6 5 5 5 6 6 6 7 7 8 10 11 10 9 8 9 12 14 33 28 18 16 16 27 39 52
6 7 12 18 16 12 8 6 5 5 5 5 5 5 5 5 5 5 5 5 5 5 5 6 6 7 9 9 9 10 10 10 8 10 13 41 22 17 15 14 19 29 42
9 7 8 14 18 20 18 15 9 7 7 6 6 6 5 5 6 6 6 6 7 7 7 7 7 7 8 10 12 12 12 12 13 12 12 11 12 18 16 14 14 21 40
26 14 10 11 14 16 19 18 17 15 10 7 6 6 6 6 6 7 7 8 8 8 8 9 11 11 12 12 12 13 16 17 17 16 24 25 20 21 15 18 15 17 27
48 26 20 19 16 14 13 17 19 20 20 16 14 12 10 9 8 9 11 12 14 14 17 23 30 32 29 30 22 17 16 16 17 17 15 25 30 27 22 20 18 17 25
64 64 36 21 22 21 18 16 19 22 21 24 30 26 19 18 18 22 26 30 32 45 58 62 61 55 49 53 58 57 33 22 19 18 18 22 29 25 31 23 22 23 28
94 96 80 46 36 36 34 34 41 45 44 38 26 21 24 28 31 37 38 48 63 87 91 83 62 71 62 70 80 78 74 32 24 30 42 40 44 47 50 49 31 28 29
95 93 79 81 84 77 69 62 61 61 58 54 42 32 43 53 64 54 62 70 60 76 76 68 69 84 80 67 80 85 91 52 60 78 78 63 59 61 61 66 46 44 40
94 95 95 95 96 91 92 82 93 94 94 95 79 72 74 71 85 86 88 82 72 81 93 97 91 84 76 69 94 97 89 94 82 90 95 95 95 95 98 88 74 62 52
95 94 97 95 96 82 82 79 92 95 97 97 98 97 90 96 96 98 92 91 96 95 97 96 96 89 95 94 95 79 71 61 81 76 79 95 96 94 93 94 92 88 80
84 75 81 92 100 97 90 95 91 94 92 93 97 94 98 97 95 94 86 85 82 90 93 86 86 87 79 76 78 77 80 69 56 53 49 46 54 56 67 75 97 96 97
68 77 70 84 99 91 93 91 97 99 98 97 85 91 96 95 94 79 72 71 70 74 70 78 78 84 95 79 62 59 68 72 57 49 48 42 46 47 44 56 74 76 85
46 49 52 52 61 74 92 98 100 98 97 96 97 97 87 95 91 85 75 62 75 87 91 93 78 76 69 63 53 54 55 58 58 55 49 44 45 50 51 50 43 39 55
40 40 45 48 64 77 91 97 96 95 92 95 95 96 98 98 98 93 87 88 89 93 90 100 95 72 69 79 98 74 64 67 55 54 62 59 53 48 46 45 46 45 40
43 46 50 54 62 74 80 67 61 59 60 62 63 66 73 77 93 94 89 95 97 94 86 92 95 87 80 68 72 99 98 93 72 65 68 68 65 65 58 53 47 44 43
53 57 57 64 71 65 65 65 66 60 44 37 36 45 54 55 65 73 73 76 92 92 91 94 92 90 95 82 68 80 100 98 86 64 73 80 69 60 58 59 61 54 45
63 62 66 70 68 63 63 64 57 31 41 36 30 26 29 37 44 50 59 61 60 58 71 84 91 86 98 96 89 81 90 96 97 93 83 68 79 93 70 61 63 62 59
65 72 73 68 61 55 54 51 39 34 44 29 34 36 26 17 24 45 53 51 52 50 44 49 72 91 91 95 91 92 92 88 89 96 84 98 82 91 97 82 64 64 73
71 69 63 64 61 52 46 41 35 36 44 45 41 23 14 12 13 23 40 53 54 50 52 54 54 70 79 97 93 91 93 94 97 100 93 96 92 88 98 92 98 92 89
72 68 61 62 63 58 58 63 58 54 49 32 8 8 10 13 24 31 41 48 59 73 82 80 78 75 67 69 96 96 96 95 95 87 98 96 88 95 97 96 93 95 97
54 42 59 66 68 68 60 54 37 13 9 10 11 15 19 34 48 50 55 65 69 77 80 86 93 95 96 95 88 92 88 96 98 92 88 99 95 90 91 100 98 96 92
Wind_Speed
3 3 9 9 8 8 8 8 9 9 10 11 12 12 11 10 9 7 8 8 6 5 4 4 3 1 1 2 4 6 8 9 10 12 13 15 14 15 15 15 16 14 10
5 3 5 7 7 7 7 9 10 12 11 12 12 11 9 8 6 5 5 4 3 3 3 3 4 6 6 7 7 9 8 9 10 11 12 13 13 12 12 12 12 13 12
8 7 5 4 5 8 7 6 7 8 8 8 8 8 8 8 6 4 3 2 2 4 5 6 7 9 10 10 11 11 10 9 10 11 10 10 11 12 11 11 11 10 10
8 10 9 8 7 7 9 9 8 9 7 6 5 5 5 6 6 6 6 7 8 9 9 10 12 12 12 12 12 13 12 12 11 11 10 9 9 9 9 9 9 10 10
10 10 12 12 12 11 10 10 11 11 10 10 10 10 10 10 11 10 10 10 10 10 11 12 12 13 14 15 16 15 14 13 13 11 12 10 9 8 6 6 8 7 8
9 12 12 13 13 12 12 12 12 13 12 11 11 11 12 13 13 13 12 13 14 15 15 15 15 16 16 17 18 19 18 17 15 13 11 14 10 11 9 7 6 8 8
7 10 15 14 14 14 12 13 14 14 14 14 15 16 16 16 17 17 18 19 18 18 18 18 19 19 20 20 21 21 21 21 20 18 14 15 16 15 14 11 9 7 9
9 10 12 15 14 14 14 13 15 17 18 19 20 20 21 21 21 22 22 22 21 21 22 22 22 23 23 24 23 23 24 24 22 20 18 20 19 18 18 15 12 11 8
15 15 15 13 14 15 14 16 16 16 18 19 21 23 23 24 23 24 24 24 24 25 25 26 25 25 26 26 27 27 28 27 27 24 18 19 22 22 20 17 16 15 11
17 17 17 18 16 16 18 18 19 19 19 20 21 22 24 26 27 25 25 26 27 28 28 28 28 28 28 29 31 30 30 30 30 28 23 20 24 23 21 20 18 17 16
20 20 19 18 19 18 21 21 22 21 21 22 23 25 27 27 27 26 26 28 28 29 29 30 30 31 31 32 34 34 33 33 31 31 28 23 25 26 24 22 21 20 19
31 26 19 16 16 19 22 24 26 26 28 28 28 29 30 30 31 30 31 31 30 32 33 33 32 32 31 33 32 32 35 35 33 33 32 30 29 29 28 27 25 24 22
24 14 19 19 18 20 23 26 29 29 31 32 33 35 34 32 34 33 32 34 35 34 34 36 33 32 32 35 34 36 33 36 33 33 37 37 36 36 33 31 30 27 25
47 13 32 27 20 18 24 29 32 34 31 31 33 35 37 35 34 36 34 37 37 36 37 40 36 37 39 38 35 33 36 37 39 34 37 37 38 40 38 32 32 30 28
36 36 30 24 18 23 28 32 35 31 33 36 34 36 39 41 31 33 34 37 36 34 34 35 33 33 34 32 30 34 35 32 29 33 34 35 30 28 28 34 31 31 32
29 29 31 29 27 30 32 37 38 38 38 39 38 39 38 37 34 30 36 38 40 39 37 39 40 39 37 35 37 38 37 38 35 35 36 37 35 35 31 28 29 26 32
27 29 33 34 31 31 37 38 40 43 43 46 45 41 42 45 45 42 45 46 46 45 46 46 44 43 40 38 40 42 42 42 41 40 40 40 39 37 36 33 31 31 31
28 29 30 32 33 35 42 37 36 36 41 47 52 50 49 49 50 50 51 53 51 50 49 49 50 48 48 47 43 43 44 45 44 43 44 43 43 41 38 37 36 36 35
28 32 35 33 35 39 40 35 32 33 35 36 33 42 51 53 55 55 54 53 54 56 58 57 55 54 50 49 46 44 45 45 46 44 42 43 45 44 42 41 38 37 37
30 36 37 38 39 41 37 30 30 32 35 38 38 40 42 43 42 43 53 66 63 63 58 60 62 59 54 53 55 51 52 50 49 47 46 47 48 48 47 45 43 42 41
35 34 37 41 42 36 33 35 39 42 41 42 44 46 47 47 45 45 49 50 48 49 48 52 61 69 70 65 59 56 58 56 56 54 54 54 53 52 52 49 49 49 47
32 35 37 39 36 35 36 35 38 33 37 42 43 45 47 49 51 52 53 52 49 50 52 53 54 50 51 59 67 64 63 64 62 62 58 60 58 60 57 57 55 52 51
31 35 38 33 34 37 38 40 38 37 44 42 47 52 53 53 53 54 55 56 55 53 53 53 57 55 55 54 53 59 67 68 66 66 67 63 65 62 62 63 61 59 53
30 31 29 33 38 38 38 40 41 46 51 52 56 56 54 55 55 55 57 56 53 50 49 48 50 53 55 54 54 50 53 57 63 67 72 72 69 66 65 61 64 66 62
28 31 35 36 38 41 43 46 50 52 58 62 57 55 56 54 54 56 58 57 52 49 45 45 46 49 52 54 54 51 52 51 52 54 55 62 68 70 70 69 68 69 69
34 38 39 38 38 42 48 52 55 56 53 52 51 51 52 53 53 53 54 54 53 52 50 47 46 46 47 48 53 58 60 58 55 57 58 54 55 57 57 60 64 67 68
Wind_Direction
283 78 92 93 103 115 125 136 141 150 153 148 146 150 154 152 149 144 145 146 155 162 156 165 169 198 48 9 13 14 18 19 23 25 28 24 19 29 35 35 39 37 28
228 180 123 128 132 125 132 151 151 154 156 159 161 166 167 162 156 147 155 177 190 203 213 265 293 301 310 319 324 322 340 349 355 1 12 15 16 14 12 24 30 39 32
256 188 201 183 176 150 153 161 167 165 167 173 176 180 182 182 191 200 219 233 262 250 261 273 279 283 284 286 291 297 305 314 322 333 348 3 8 14 1 352 7 22 28
260 223 200 209 198 183 167 172 177 181 186 197 209 215 219 226 230 233 236 237 242 245 250 255 260 265 271 275 278 280 283 291 294 305 314 333 351 355 359 6 356 358 2
254 246 226 210 203 211 209 196 196 205 206 216 221 228 233 237 240 242 241 242 248 254 259 263 268 274 276 274 271 269 275 278 280 283 297 305 313 314 324 344 358 355 349
257 240 238 233 225 221 220 222 227 225 228 237 246 245 244 244 248 254 260 261 259 263 268 276 280 282 281 282 283 282 273 270 268 275 276 283 283 289 302 309 327 337 350
287 253 240 235 231 229 224 228 231 237 241 247 250 252 257 257 258 260 259 259 259 265 271 274 276 276 277 279 280 281 282 279 273 270 268 269 280 285 290 293 294 311 328
300 271 249 236 234 231 238 237 236 237 239 241 243 245 246 249 251 254 258 260 264 266 266 268 271 272 272 273 273 276 277 277 274 270 270 270 272 273 278 283 283 289 301
302 300 287 259 246 245 245 246 247 248 248 249 257 263 265 265 265 267 269 272 273 274 274 275 274 272 272 272 273 273 274 275 275 271 266 272 276 273 276 275 275 278 282
291 280 280 279 278 269 258 253 255 256 258 261 261 260 260 260 261 263 267 269 271 272 274 274 274 275 276 275 273 272 271 272 272 274 270 261 266 270 270 270 267 267 275
272 271 267 270 278 285 284 285 284 280 281 279 274 270 267 266 267 269 272 274 274 273 273 273 274 274 271 272 272 271 270 266 268 269 269 262 260 262 260 258 262 265 268
260 232 246 257 270 280 283 284 286 291 289 283 280 279 277 276 274 275 277 274 270 271 272 267 268 268 268 269 268 269 270 265 263 265 265 264 260 256 257 258 252 256 261
294 217 248 242 243 257 268 271 273 272 275 278 280 278 277 278 276 274 275 275 275 272 272 274 270 269 268 262 260 266 273 258 259 264 263 264 262 255 253 251 258 255 257
308 249 313 272 272 269 274 276 276 273 272 272 271 272 271 267 271 271 273 268 267 267 269 268 268 271 267 256 261 268 269 261 252 259 261 267 271 258 245 236 249 259 257
317 322 318 289 286 290 285 286 283 274 272 274 272 268 268 265 259 272 274 281 272 269 277 280 280 284 286 289 259 269 271 271 267 265 270 273 278 284 284 264 253 253 259
323 331 327 331 323 302 288 288 285 284 280 279 273 277 273 269 269 266 268 271 271 274 271 273 277 277 276 272 271 270 270 271 269 270 273 275 277 279 273 270 264 274 260
306 313 329 326 320 322 319 318 288 282 282 283 282 272 267 265 270 273 268 267 267 267 268 267 267 272 270 268 268 266 265 269 272 271 270 271 271 269 270 270 272 271 270
305 315 319 317 313 310 311 308 308 292 290 287 276 277 275 273 274 277 275 272 273 272 271 272 274 271 270 269 266 264 263 264 265 265 267 267 267 269 266 262 261 265 268
299 306 302 306 311 315 314 306 304 303 302 303 305 281 272 273 275 277 276 273 274 273 275 272 275 275 271 265 269 264 263 263 262 261 263 266 267 266 264 262 261 258 259
298 297 303 308 310 310 308 307 311 312 311 308 305 300 302 301 292 290 278 266 265 266 269 271 272 272 270 266 268 264 267 266 260 259 260 260 260 260 261 264 264 261 256
301 304 304 306 304 304 298 303 309 310 310 309 306 303 299 296 291 287 290 291 279 274 279 269 268 270 270 266 263 262 264 261 263 259 262 263 260 259 260 259 260 262 259
297 300 298 298 299 298 298 294 298 301 309 310 310 310 306 300 293 290 288 286 283 282 284 283 277 274 274 268 263 260 261 260 261 258 261 263 263 262 260 258 257 254 256
297 298 298 299 296 297 297 295 290 292 303 302 306 306 305 301 299 293 289 287 286 286 284 280 280 277 271 274 269 266 262 260 259 260 258 256 260 262 258 257 257 256 253
298 296 295 295 295 294 296 296 289 291 298 299 302 300 296 295 293 293 293 291 290 288 285 278 272 272 275 274 274 275 268 264 261 261 259 255 258 260 257 259 263 257 253
304 296 299 298 296 294 295 295 295 295 295 297 297 295 294 294 292 290 290 293 294 292 287 283 281 277 271 269 273 272 270 268 266 265 260 264 260 257 257 258 258 259 257
311 303 301 300 298 297 296 295 294 294 294 295 295 295 295 296 297 295 293 293 292 292 289 285 282 280 277 275 271 270 271 269 269 266 262 259 261 262 258 258 257 257 258